Temp
-9 -9 -9 -9 -9 -9 -8 -9 -8 -7 -7 -8 -8 -7 -7 -6 -6 -5 -5 -5 -4 -3 -2 -2 -3 -4 -4 -4 -5 -6 -6 -6 -7 -6 -6 -6 -5 -5 -5 -5 -6 -5 -5 -6 -6 -6 -6 -6 -6 -5 -6 -6 -6 -6 -6 -6 -6 -6 -5 -5 -5 -5 -5
-10 -9 -9 -9 -9 -9 -8 -8 -8 -8 -8 -8 -8 -8 -7 -6 -6 -5 -5 -5 -4 -4 -3 -3 -3 -4 -5 -5 -5 -6 -6 -6 -7 -6 -6 -6 -6 -6 -5 -5 -5 -6 -5 -5 -6 -6 -6 -6 -6 -6 -6 -6 -6 -6 -6 -6 -5 -5 -5 -5 -5 -5 -5
-11 -10 -10 -10 -10 -9 -9 -8 -8 -8 -9 -8 -8 -8 -7 -6 -6 -5 -5 -5 -4 -4 -3 -3 -3 -4 -5 -5 -5 -6 -6 -6 -6 -6 -6 -6 -6 -6 -5 -5 -5 -5 -5 -5 -6 -6 -6 -6 -6 -6 -6 -6 -6 -6 -6 -6 -5 -5 -5 -5 -5 -5 -5
-12 -11 -11 -11 -10 -10 -9 -9 -9 -9 -9 -8 -8 -8 -7 -6 -6 -5 -5 -5 -4 -4 -3 -3 -4 -4 -5 -5 -5 -6 -6 -6 -6 -6 -6 -6 -6 -6 -6 -6 -5 -5 -5 -5 -6 -6 -6 -6 -6 -6 -6 -6 -6 -6 -6 -6 -6 -5 -5 -5 -5 -5 -5
-13 -12 -12 -11 -11 -10 -10 -10 -10 -10 -9 -8 -8 -8 -7 -7 -6 -6 -5 -5 -4 -4 -4 -4 -4 -4 -5 -5 -5 -6 -6 -6 -6 -6 -6 -6 -6 -6 -6 -6 -6 -5 -6 -6 -6 -6 -6 -6 -6 -6 -6 -6 -6 -6 -6 -6 -6 -6 -5 -5 -5 -5 -5
-13 -13 -12 -11 -11 -11 -11 -10 -10 -10 -9 -9 -8 -8 -7 -7 -6 -6 -6 -5 -4 -5 -5 -4 -4 -4 -5 -5 -5 -6 -6 -6 -6 -6 -6 -6 -6 -6 -6 -6 -6 -6 -6 -6 -6 -6 -6 -6 -6 -6 -6 -6 -6 -6 -6 -6 -6 -6 -5 -5 -5 -5 -5
-13 -13 -13 -12 -12 -12 -12 -11 -10 -9 -9 -9 -8 -8 -7 -7 -6 -6 -6 -5 -4 -5 -5 -4 -4 -4 -5 -6 -6 -6 -6 -6 -6 -7 -7 -6 -6 -6 -6 -6 -6 -6 -6 -6 -6 -6 -6 -6 -7 -7 -6 -6 -6 -6 -6 -6 -6 -6 -6 -5 -5 -5 -5
-14 -13 -13 -13 -13 -13 -12 -11 -10 -10 -9 -9 -8 -7 -7 -7 -7 -6 -6 -5 -4 -5 -5 -5 -5 -5 -5 -6 -6 -6 -6 -7 -7 -7 -7 -7 -7 -7 -7 -7 -7 -7 -6 -6 -6 -6 -6 -6 -7 -6 -6 -6 -6 -6 -6 -6 -6 -6 -6 -6 -5 -5 -5
-14 -15 -15 -14 -14 -14 -13 -12 -11 -10 -10 -9 -8 -8 -7 -7 -7 -7 -6 -5 -5 -5 -5 -5 -5 -5 -5 -6 -6 -6 -6 -7 -7 -7 -7 -7 -7 -7 -7 -7 -7 -7 -7 -6 -6 -6 -6 -6 -6 -6 -6 -6 -6 -6 -6 -6 -6 -6 -6 -6 -6 -5 -5
-15 -15 -15 -15 -14 -14 -13 -12 -11 -11 -10 -9 -9 -8 -8 -7 -7 -7 -6 -6 -6 -6 -5 -5 -5 -5 -5 -6 -6 -6 -6 -7 -7 -7 -7 -7 -7 -7 -8 -8 -8 -8 -7 -6 -6 -6 -6 -6 -6 -6 -6 -6 -6 -6 -6 -6 -6 -6 -6 -6 -6 -5 -5
-15 -15 -15 -15 -14 -14 -13 -13 -12 -11 -11 -10 -9 -9 -8 -7 -7 -7 -7 -7 -6 -6 -6 -6 -6 -5 -6 -6 -6 -6 -7 -7 -7 -7 -7 -7 -7 -7 -8 -8 -8 -8 -8 -7 -6 -6 -6 -6 -6 -6 -6 -6 -6 -6 -6 -6 -6 -6 -6 -6 -6 -5 -5
-15 -15 -15 -15 -15 -14 -14 -13 -12 -12 -11 -10 -9 -9 -8 -8 -7 -7 -7 -7 -6 -6 -6 -6 -6 -6 -6 -6 -6 -6 -6 -7 -7 -7 -7 -7 -7 -7 -8 -8 -8 -8 -7 -7 -6 -6 -6 -6 -6 -6 -6 -6 -6 -6 -6 -6 -6 -6 -6 -6 -5 -5 -5
-16 -16 -16 -16 -15 -14 -14 -13 -13 -12 -11 -10 -9 -9 -8 -8 -7 -7 -7 -7 -7 -6 -6 -7 -6 -6 -6 -6 -6 -6 -6 -7 -7 -7 -7 -7 -7 -7 -7 -7 -7 -7 -7 -7 -6 -7 -7 -7 -7 -6 -6 -6 -6 -6 -6 -6 -6 -6 -6 -6 -5 -5 -5
-16 -16 -16 -15 -16 -15 -14 -14 -13 -13 -12 -10 -9 -9 -9 -8 -8 -7 -7 -7 -7 -6 -7 -7 -6 -6 -5 -5 -6 -6 -6 -7 -7 -7 -7 -7 -7 -7 -7 -7 -7 -7 -7 -7 -6 -7 -7 -7 -7 -7 -6 -6 -6 -6 -6 -5 -5 -5 -6 -5 -5 -5 -5
-16 -16 -16 -16 -16 -15 -15 -14 -14 -13 -12 -11 -10 -9 -9 -9 -8 -8 -7 -7 -7 -6 -7 -7 -6 -6 -5 -5 -5 -6 -6 -6 -6 -6 -6 -6 -7 -7 -7 -7 -7 -7 -7 -7 -6 -7 -7 -7 -7 -7 -6 -6 -6 -6 -6 -5 -5 -5 -5 -5 -5 -5 -5
-16 -17 -17 -16 -16 -15 -15 -15 -14 -13 -13 -12 -11 -10 -9 -9 -8 -8 -8 -8 -7 -6 -7 -7 -6 -6 -6 -5 -5 -5 -6 -6 -6 -6 -6 -6 -7 -7 -7 -6 -6 -6 -7 -6 -6 -7 -7 -8 -7 -7 -7 -6 -6 -6 -6 -6 -5 -5 -5 -5 -5 -5 -5
-16 -17 -17 -16 -16 -16 -15 -15 -14 -14 -13 -12 -11 -10 -9 -9 -9 -9 -8 -8 -7 -7 -7 -7 -7 -6 -6 -6 -6 -5 -5 -5 -6 -6 -6 -6 -6 -6 -6 -6 -6 -6 -6 -6 -6 -7 -8 -8 -8 -7 -7 -6 -6 -6 -6 -6 -6 -5 -5 -5 -5 -5 -5
-17 -17 -17 -16 -16 -16 -15 -15 -14 -14 -13 -13 -11 -10 -10 -9 -9 -9 -8 -7 -7 -7 -7 -7 -7 -7 -7 -7 -6 -5 -5 -5 -5 -6 -6 -6 -5 -6 -6 -6 -6 -6 -6 -6 -6 -7 -8 -8 -8 -8 -7 -7 -7 -7 -7 -6 -6 -6 -5 -5 -5 -5 -5
-17 -18 -17 -17 -16 -16 -15 -15 -14 -14 -14 -13 -12 -11 -10 -10 -10 -9 -8 -7 -7 -7 -7 -8 -7 -7 -7 -8 -7 -6 -6 -5 -5 -6 -6 -6 -6 -6 -6 -6 -6 -6 -6 -6 -6 -7 -8 -8 -8 -8 -7 -7 -7 -7 -7 -6 -6 -6 -6 -5 -5 -5 -5
-18 -18 -18 -17 -16 -15 -15 -15 -15 -14 -14 -13 -12 -11 -10 -10 -10 -10 -9 -7 -7 -7 -8 -8 -8 -8 -8 -8 -8 -7 -6 -6 -6 -6 -6 -6 -6 -6 -6 -6 -6 -6 -6 -6 -6 -7 -8 -8 -8 -8 -7 -7 -7 -7 -7 -6 -6 -6 -6 -5 -5 -5 -5
-19 -18 -18 -17 -16 -15 -15 -15 -15 -15 -14 -14 -13 -11 -11 -11 -10 -10 -9 -7 -7 -7 -8 -8 -8 -8 -8 -8 -8 -7 -7 -6 -7 -7 -7 -7 -7 -7 -7 -6 -6 -6 -6 -6 -7 -7 -8 -8 -8 -8 -7 -7 -7 -7 -7 -6 -6 -6 -6 -6 -5 -5 -5
-19 -18 -17 -17 -16 -15 -15 -15 -15 -14 -14 -14 -13 -12 -11 -11 -10 -9 -8 -8 -7 -7 -8 -8 -8 -8 -8 -8 -8 -8 -7 -7 -7 -7 -7 -7 -7 -7 -6 -6 -6 -6 -6 -6 -7 -8 -8 -8 -8 -8 -8 -8 -7 -7 -7 -6 -6 -6 -6 -6 -6 -5 -5
-19 -18 -17 -17 -16 -15 -15 -15 -15 -14 -14 -14 -13 -12 -12 -11 -10 -10 -9 -8 -8 -8 -8 -8 -8 -8 -8 -8 -8 -8 -7 -7 -7 -7 -7 -7 -7 -7 -6 -6 -6 -6 -6 -7 -7 -8 -8 -8 -8 -8 -8 -8 -7 -7 -7 -7 -6 -6 -6 -6 -6 -6 -6
-18 -18 -17 -17 -16 -15 -15 -15 -15 -14 -14 -14 -13 -13 -12 -11 -10 -10 -9 -8 -8 -8 -8 -8 -8 -8 -8 -8 -8 -8 -7 -7 -7 -7 -7 -7 -7 -7 -6 -6 -6 -6 -7 -7 -7 -8 -8 -8 -8 -8 -8 -8 -7 -7 -7 -7 -6 -6 -6 -6 -6 -6 -6
-18 -17 -17 -16 -16 -15 -15 -15 -15 -15 -14 -14 -14 -13 -11 -11 -10 -10 -9 -8 -8 -8 -8 -8 -8 -8 -8 -8 -8 -7 -7 -7 -7 -7 -7 -7 -7 -7 -7 -6 -6 -7 -7 -7 -8 -8 -8 -8 -8 -8 -8 -8 -8 -7 -7 -7 -7 -6 -6 -6 -6 -6 -6
-17 -17 -17 -16 -16 -15 -15 -15 -15 -15 -14 -14 -13 -12 -11 -11 -10 -9 -9 -9 -8 -8 -8 -8 -8 -8 -8 -8 -8 -7 -7 -7 -7 -7 -7 -7 -7 -7 -7 -7 -7 -7 -8 -8 -8 -8 -8 -8 -8 -8 -8 -8 -8 -8 -7 -7 -7 -7 -7 -7 -6 -6 -6
-17 -17 -17 -16 -16 -15 -15 -15 -14 -14 -14 -14 -13 -12 -11 -11 -10 -9 -9 -9 -8 -8 -8 -8 -8 -8 -8 -8 -8 -7 -7 -7 -7 -7 -7 -7 -7 -7 -7 -7 -7 -7 -8 -8 -8 -8 -8 -8 -8 -8 -8 -8 -8 -8 -7 -7 -7 -7 -7 -7 -7 -7 -7
-17 -17 -17 -16 -16 -15 -15 -15 -14 -14 -14 -14 -13 -12 -11 -11 -11 -10 -9 -9 -9 -8 -8 -8 -8 -8 -8 -8 -8 -7 -7 -7 -7 -7 -7 -7 -7 -7 -7 -7 -7 -8 -8 -8 -8 -8 -8 -8 -8 -8 -8 -8 -8 -8 -7 -7 -7 -7 -7 -8 -8 -8 -8
-17 -17 -17 -16 -16 -15 -15 -14 -14 -14 -14 -14 -13 -12 -11 -11 -11 -10 -9 -9 -9 -9 -8 -8 -8 -8 -8 -8 -8 -8 -7 -7 -7 -7 -7 -7 -7 -7 -7 -8 -7 -8 -8 -8 -8 -8 -8 -8 -8 -8 -8 -8 -8 -7 -7 -7 -8 -8 -8 -8 -8 -8 -8
-17 -17 -17 -16 -16 -15 -15 -14 -14 -14 -14 -14 -13 -12 -11 -11 -11 -10 -9 -9 -9 -9 -8 -8 -8 -8 -8 -8 -8 -8 -8 -7 -7 -7 -7 -7 -7 -7 -8 -8 -8 -8 -8 -8 -8 -8 -8 -8 -8 -8 -8 -8 -8 -7 -8 -8 -8 -8 -8 -8 -8 -8 -8
-17 -17 -17 -16 -16 -15 -15 -14 -14 -14 -14 -14 -13 -12 -11 -11 -11 -10 -10 -9 -9 -9 -8 -8 -8 -7 -7 -8 -8 -8 -8 -7 -7 -7 -7 -7 -8 -8 -8 -8 -8 -8 -8 -8 -8 -8 -8 -8 -8 -8 -8 -8 -8 -8 -8 -8 -8 -8 -8 -8 -8 -8 -8
-17 -17 -17 -16 -16 -15 -15 -14 -14 -14 -14 -13 -13 -12 -11 -11 -11 -10 -10 -9 -9 -9 -9 -8 -8 -8 -7 -8 -8 -8 -8 -7 -7 -7 -7 -8 -8 -8 -8 -8 -8 -8 -8 -8 -8 -8 -8 -8 -8 -8 -8 -8 -8 -8 -8 -8 -8 -8 -8 -8 -8 -8 -8
-18 -17 -17 -16 -16 -15 -15 -14 -14 -14 -14 -13 -12 -12 -11 -11 -11 -11 -10 -10 -10 -9 -9 -8 -8 -8 -7 -7 -7 -8 -8 -8 -7 -7 -8 -8 -8 -8 -8 -8 -8 -8 -8 -8 -8 -8 -8 -8 -8 -8 -8 -8 -8 -8 -8 -8 -8 -8 -8 -8 -8 -8 -8
-17 -17 -17 -17 -16 -15 -15 -15 -14 -14 -14 -13 -12 -12 -11 -11 -11 -11 -10 -10 -10 -9 -9 -9 -8 -8 -8 -8 -7 -8 -8 -8 -8 -8 -8 -8 -8 -8 -8 -8 -8 -8 -8 -8 -8 -8 -8 -8 -8 -8 -8 -8 -8 -8 -8 -8 -8 -8 -8 -8 -8 -8 -8
-17 -17 -17 -17 -16 -15 -15 -15 -14 -14 -14 -13 -12 -12 -12 -11 -11 -11 -10 -10 -10 -9 -9 -9 -8 -8 -8 -8 -8 -8 -8 -8 -8 -8 -8 -8 -8 -8 -8 -8 -8 -8 -8 -8 -8 -8 -8 -8 -8 -8 -8 -8 -8 -8 -8 -8 -8 -8 -8 -8 -8 -8 -8
-17 -17 -17 -17 -16 -16 -16 -15 -15 -14 -14 -13 -13 -13 -12 -11 -11 -11 -10 -10 -10 -9 -9 -9 -9 -8 -8 -8 -8 -8 -8 -8 -8 -8 -8 -8 -8 -8 -8 -8 -8 -8 -8 -8 -8 -8 -8 -8 -8 -8 -8 -8 -8 -8 -8 -8 -8 -8 -9 -9 -8 -8 -8
-17 -17 -17 -17 -16 -16 -16 -15 -15 -14 -14 -13 -13 -13 -13 -12 -12 -11 -11 -10 -10 -9 -9 -9 -9 -8 -8 -8 -8 -8 -8 -8 -8 -8 -8 -8 -8 -8 -8 -8 -8 -8 -8 -8 -8 -8 -8 -8 -8 -8 -8 -8 -8 -8 -8 -8 -9 -9 -9 -9 -9 -8 -8
Height
5750 5755 5759 5764 5769 5774 5778 5779 5782 5787 5794 5797 5798 5801 5804 5805 5807 5806 5806 5812 5817 5822 5832 5838 5840 5843 5846 5850 5853 5854 5856 5859 5861 5863 5867 5870 5873 5876 5879 5881 5882 5884 5885 5885 5886 5887 5889 5890 5892 5893 5895 5897 5898 5900 5902 5903 5905 5907 5910 5912 5915 5917 5919
5742 5747 5752 5758 5764 5770 5772 5774 5781 5786 5788 5789 5790 5794 5798 5799 5801 5799 5800 5810 5817 5820 5827 5833 5836 5841 5845 5848 5850 5851 5853 5855 5857 5861 5865 5868 5871 5873 5876 5878 5880 5882 5883 5884 5885 5886 5888 5889 5891 5892 5893 5894 5896 5897 5900 5902 5904 5906 5908 5910 5912 5914 5917
5735 5741 5746 5751 5757 5763 5768 5773 5778 5779 5778 5781 5784 5788 5792 5794 5794 5794 5796 5806 5813 5817 5824 5830 5834 5838 5842 5845 5847 5848 5850 5852 5855 5860 5863 5866 5869 5870 5873 5875 5877 5879 5881 5883 5883 5884 5886 5887 5889 5890 5891 5892 5893 5895 5897 5899 5902 5904 5905 5907 5909 5912 5915
5728 5733 5737 5744 5751 5756 5763 5767 5768 5769 5772 5777 5781 5784 5788 5791 5791 5792 5794 5801 5809 5816 5823 5827 5831 5835 5839 5841 5844 5846 5848 5850 5854 5858 5861 5864 5866 5868 5870 5873 5875 5877 5879 5881 5882 5883 5884 5886 5887 5888 5889 5890 5892 5893 5895 5897 5899 5901 5903 5905 5907 5910 5913
5720 5725 5730 5739 5746 5750 5755 5757 5758 5762 5767 5772 5776 5778 5783 5787 5788 5790 5792 5796 5806 5815 5820 5824 5828 5832 5835 5837 5841 5844 5846 5849 5853 5856 5859 5861 5864 5866 5868 5870 5872 5875 5877 5879 5881 5881 5882 5883 5884 5885 5887 5888 5890 5891 5893 5895 5897 5900 5902 5905 5907 5909 5911
5713 5719 5726 5734 5739 5742 5745 5748 5751 5758 5764 5766 5769 5772 5776 5781 5783 5785 5787 5791 5802 5813 5817 5820 5824 5828 5831 5834 5838 5841 5844 5847 5850 5853 5856 5859 5861 5864 5866 5867 5869 5871 5874 5876 5877 5878 5879 5880 5882 5884 5885 5887 5888 5890 5891 5893 5896 5898 5901 5903 5905 5907 5910
5708 5716 5722 5726 5731 5734 5738 5742 5747 5754 5758 5760 5763 5767 5772 5777 5779 5781 5783 5786 5797 5810 5814 5816 5820 5824 5827 5831 5834 5839 5842 5845 5848 5851 5854 5856 5859 5862 5863 5865 5866 5868 5871 5873 5874 5876 5877 5879 5881 5883 5884 5885 5886 5888 5890 5891 5894 5897 5899 5901 5903 5905 5908
5704 5712 5716 5718 5723 5728 5732 5737 5742 5747 5751 5753 5759 5764 5768 5772 5774 5778 5779 5781 5794 5809 5811 5813 5817 5821 5824 5827 5830 5835 5839 5842 5845 5848 5851 5853 5856 5859 5860 5862 5863 5865 5867 5869 5870 5873 5875 5877 5879 5880 5882 5883 5885 5886 5888 5890 5893 5894 5896 5898 5900 5903 5906
5697 5703 5707 5710 5715 5721 5726 5731 5736 5741 5745 5749 5756 5760 5763 5766 5769 5774 5776 5777 5792 5806 5808 5809 5814 5817 5820 5823 5826 5831 5835 5838 5841 5844 5847 5850 5852 5855 5857 5859 5861 5862 5863 5866 5868 5870 5873 5875 5877 5878 5880 5882 5883 5885 5887 5889 5891 5892 5894 5896 5898 5901 5903
5688 5694 5697 5701 5707 5714 5720 5725 5731 5735 5739 5745 5751 5753 5756 5760 5765 5772 5772 5774 5790 5803 5804 5806 5810 5812 5816 5819 5822 5826 5830 5834 5838 5840 5843 5845 5848 5851 5853 5855 5857 5859 5860 5864 5866 5869 5870 5873 5874 5876 5878 5880 5881 5883 5885 5887 5888 5890 5892 5894 5896 5898 5900
5682 5688 5692 5696 5702 5709 5715 5720 5725 5729 5733 5739 5743 5746 5751 5756 5762 5768 5768 5774 5789 5799 5800 5802 5804 5806 5810 5813 5817 5821 5824 5828 5832 5835 5838 5841 5843 5846 5849 5851 5853 5855 5857 5861 5864 5867 5869 5871 5872 5874 5876 5878 5879 5881 5883 5884 5886 5887 5890 5892 5894 5896 5898
5676 5682 5686 5692 5697 5704 5710 5715 5720 5724 5728 5733 5737 5741 5746 5752 5759 5763 5765 5775 5788 5793 5794 5797 5799 5801 5804 5807 5811 5815 5818 5821 5825 5828 5831 5834 5837 5840 5843 5845 5848 5850 5853 5857 5860 5863 5866 5869 5871 5872 5874 5876 5878 5879 5880 5882 5883 5885 5887 5890 5892 5894 5896
5669 5675 5681 5686 5692 5699 5705 5710 5715 5719 5723 5728 5733 5738 5743 5749 5754 5756 5762 5775 5784 5787 5790 5793 5794 5796 5799 5802 5806 5810 5814 5817 5820 5823 5826 5829 5832 5835 5837 5840 5843 5846 5849 5852 5856 5859 5863 5866 5868 5870 5873 5874 5875 5877 5878 5879 5881 5883 5885 5887 5890 5892 5894
5664 5670 5676 5681 5687 5694 5700 5705 5710 5713 5718 5724 5729 5734 5739 5744 5747 5751 5762 5775 5780 5783 5787 5789 5789 5793 5796 5799 5803 5806 5810 5813 5816 5819 5823 5825 5828 5831 5834 5837 5839 5843 5846 5849 5852 5855 5859 5862 5865 5868 5870 5872 5874 5875 5876 5877 5879 5881 5883 5885 5887 5889 5892
5659 5666 5671 5677 5682 5689 5694 5699 5703 5708 5713 5719 5723 5728 5733 5737 5741 5749 5761 5771 5775 5779 5783 5785 5786 5790 5792 5796 5799 5802 5806 5809 5812 5815 5818 5821 5825 5828 5830 5833 5836 5840 5843 5846 5849 5851 5855 5859 5863 5865 5868 5870 5872 5873 5874 5876 5877 5879 5881 5883 5885 5887 5890
5654 5660 5665 5670 5677 5683 5687 5691 5697 5703 5708 5713 5718 5723 5727 5732 5739 5747 5757 5766 5771 5774 5778 5781 5784 5786 5789 5793 5796 5799 5803 5805 5808 5812 5815 5818 5821 5824 5826 5829 5833 5836 5839 5842 5846 5849 5853 5857 5860 5863 5865 5867 5869 5871 5872 5874 5875 5877 5879 5881 5883 5885 5886
5650 5655 5659 5665 5671 5676 5680 5686 5693 5699 5704 5709 5714 5719 5723 5729 5735 5743 5753 5763 5768 5770 5773 5778 5781 5783 5786 5790 5793 5797 5800 5803 5805 5809 5811 5814 5817 5820 5823 5827 5831 5834 5836 5840 5844 5847 5850 5854 5858 5860 5862 5865 5867 5869 5870 5871 5872 5874 5876 5878 5880 5881 5883
5645 5650 5654 5660 5665 5668 5675 5684 5691 5696 5700 5705 5710 5714 5718 5725 5732 5740 5750 5760 5763 5765 5770 5775 5778 5781 5784 5787 5791 5795 5798 5800 5803 5806 5808 5811 5814 5818 5822 5826 5829 5832 5834 5837 5841 5844 5848 5851 5855 5857 5858 5861 5864 5865 5866 5868 5869 5872 5873 5875 5877 5878 5880
5641 5645 5650 5655 5659 5665 5675 5684 5688 5692 5697 5701 5705 5709 5714 5721 5729 5737 5747 5755 5758 5762 5768 5772 5775 5779 5782 5785 5789 5793 5795 5798 5800 5803 5806 5809 5812 5815 5818 5821 5824 5828 5831 5834 5837 5841 5844 5848 5851 5852 5854 5858 5860 5861 5863 5865 5866 5869 5870 5872 5874 5875 5877
5636 5641 5645 5650 5657 5666 5674 5679 5683 5688 5693 5697 5701 5705 5711 5718 5725 5733 5742 5750 5753 5759 5765 5770 5773 5776 5779 5782 5786 5790 5793 5795 5798 5801 5804 5806 5809 5812 5814 5817 5820 5824 5828 5831 5834 5837 5841 5845 5847 5849 5852 5855 5857 5859 5860 5862 5863 5865 5867 5869 5870 5872 5874
5632 5637 5642 5649 5657 5663 5668 5673 5678 5683 5688 5693 5697 5702 5707 5715 5722 5730 5738 5745 5749 5755 5762 5766 5770 5774 5777 5780 5783 5787 5791 5793 5796 5799 5801 5803 5806 5808 5810 5813 5816 5819 5823 5826 5830 5834 5838 5842 5844 5846 5849 5851 5853 5855 5857 5858 5861 5863 5864 5866 5868 5870 5873
5629 5634 5640 5646 5652 5656 5662 5669 5675 5680 5685 5690 5694 5699 5705 5712 5719 5726 5733 5740 5745 5751 5758 5762 5767 5770 5773 5777 5781 5784 5788 5791 5794 5797 5799 5801 5803 5805 5807 5810 5813 5816 5819 5823 5827 5831 5835 5838 5840 5842 5845 5848 5850 5852 5854 5856 5858 5861 5863 5865 5866 5869 5872
5626 5632 5638 5643 5648 5653 5660 5668 5674 5679 5683 5687 5691 5697 5703 5709 5715 5722 5729 5735 5741 5747 5753 5758 5763 5767 5771 5774 5778 5782 5786 5789 5792 5794 5796 5798 5800 5802 5805 5808 5810 5814 5817 5821 5824 5827 5831 5834 5836 5839 5842 5845 5847 5849 5851 5853 5856 5859 5861 5863 5865 5868 5870
5625 5631 5636 5642 5647 5652 5658 5666 5672 5677 5681 5685 5689 5693 5699 5705 5712 5718 5724 5731 5738 5744 5750 5755 5760 5764 5768 5771 5775 5779 5783 5787 5790 5792 5794 5796 5798 5800 5803 5805 5808 5811 5815 5818 5821 5825 5828 5830 5832 5835 5839 5841 5844 5847 5849 5851 5855 5857 5860 5861 5863 5866 5868
5625 5630 5635 5640 5645 5650 5656 5663 5669 5673 5677 5680 5684 5689 5696 5703 5709 5714 5721 5728 5735 5741 5747 5752 5756 5760 5764 5768 5772 5776 5780 5784 5787 5789 5791 5794 5796 5798 5801 5803 5806 5809 5813 5816 5820 5822 5825 5827 5830 5833 5836 5839 5842 5844 5847 5850 5853 5856 5857 5859 5861 5863 5866
5625 5629 5634 5639 5643 5648 5654 5660 5665 5669 5672 5676 5683 5690 5697 5702 5707 5713 5719 5725 5732 5738 5743 5748 5753 5756 5760 5764 5769 5773 5777 5781 5784 5786 5789 5792 5794 5796 5799 5801 5804 5808 5811 5815 5817 5820 5822 5825 5828 5831 5834 5837 5840 5843 5846 5850 5852 5853 5855 5857 5860 5862 5864
5624 5628 5632 5636 5640 5645 5650 5656 5662 5666 5670 5675 5683 5690 5695 5700 5705 5711 5716 5723 5729 5735 5740 5745 5749 5753 5756 5761 5766 5771 5774 5778 5781 5784 5786 5789 5792 5795 5797 5799 5802 5806 5809 5813 5816 5818 5820 5823 5826 5829 5832 5835 5838 5842 5846 5849 5849 5851 5853 5856 5858 5860 5862
5623 5626 5629 5632 5636 5641 5647 5653 5659 5664 5668 5674 5681 5687 5693 5698 5703 5708 5714 5720 5726 5731 5736 5741 5745 5749 5753 5758 5763 5768 5771 5775 5778 5781 5784 5787 5790 5793 5795 5798 5801 5804 5807 5811 5813 5815 5818 5821 5825 5827 5831 5834 5837 5841 5844 5846 5847 5849 5852 5854 5855 5857 5859
5621 5625 5628 5631 5635 5640 5646 5651 5657 5662 5668 5673 5679 5685 5689 5694 5699 5705 5711 5716 5722 5728 5732 5737 5741 5745 5750 5755 5760 5765 5768 5771 5775 5778 5781 5784 5787 5790 5793 5796 5798 5801 5805 5808 5810 5812 5816 5819 5822 5825 5828 5832 5835 5839 5842 5843 5845 5847 5849 5851 5853 5855 5857
5620 5624 5628 5631 5635 5640 5644 5649 5655 5660 5665 5671 5677 5682 5687 5690 5695 5701 5707 5713 5719 5724 5728 5733 5737 5741 5746 5752 5757 5761 5764 5767 5771 5775 5778 5782 5785 5788 5791 5794 5796 5799 5802 5805 5807 5810 5813 5816 5819 5823 5826 5829 5832 5835 5838 5840 5843 5844 5846 5848 5850 5852 5855
5619 5623 5627 5630 5634 5639 5643 5648 5653 5658 5663 5668 5674 5679 5684 5688 5693 5697 5703 5709 5715 5720 5725 5729 5733 5737 5742 5748 5754 5757 5760 5764 5768 5772 5776 5779 5782 5785 5788 5791 5794 5796 5800 5802 5804 5807 5810 5814 5817 5820 5822 5825 5829 5832 5834 5837 5839 5841 5843 5846 5848 5850 5852
5618 5622 5625 5629 5633 5637 5641 5646 5650 5655 5660 5665 5671 5676 5681 5685 5689 5693 5698 5704 5710 5716 5721 5725 5730 5734 5738 5744 5749 5753 5757 5761 5765 5769 5772 5776 5779 5782 5785 5788 5791 5794 5797 5799 5801 5804 5807 5810 5813 5817 5820 5823 5826 5829 5831 5834 5836 5838 5840 5842 5844 5847 5849
5617 5620 5624 5627 5631 5634 5639 5643 5647 5652 5658 5663 5668 5673 5677 5681 5685 5690 5694 5699 5706 5712 5717 5722 5726 5729 5734 5739 5745 5750 5754 5758 5762 5765 5769 5773 5776 5779 5782 5785 5788 5791 5794 5796 5799 5801 5804 5807 5811 5814 5817 5820 5823 5826 5828 5831 5833 5835 5837 5838 5840 5843 5846
5616 5619 5622 5625 5629 5632 5636 5640 5644 5649 5655 5659 5664 5669 5673 5677 5682 5687 5691 5696 5702 5707 5713 5718 5722 5725 5730 5735 5741 5746 5750 5754 5758 5762 5765 5769 5773 5776 5780 5782 5785 5788 5790 5793 5796 5798 5801 5804 5807 5811 5814 5817 5819 5822 5824 5827 5830 5832 5834 5834 5836 5839 5842
5615 5618 5621 5624 5627 5631 5634 5638 5642 5648 5653 5657 5661 5665 5669 5673 5678 5683 5688 5693 5698 5703 5709 5714 5718 5722 5726 5731 5737 5743 5747 5750 5754 5758 5761 5765 5769 5773 5776 5779 5782 5785 5787 5790 5793 5795 5798 5801 5804 5807 5810 5813 5816 5818 5820 5822 5825 5827 5829 5830 5833 5836 5838
5615 5617 5619 5622 5626 5629 5633 5637 5641 5646 5651 5654 5657 5661 5665 5670 5675 5681 5685 5689 5694 5700 5706 5711 5714 5718 5723 5727 5733 5739 5743 5747 5751 5754 5758 5762 5766 5769 5773 5776 5779 5782 5784 5787 5790 5793 5795 5798 5801 5804 5806 5810 5813 5815 5816 5818 5821 5823 5824 5827 5829 5832 5834
5614 5616 5618 5621 5623 5627 5631 5635 5639 5644 5649 5651 5654 5657 5662 5667 5672 5677 5681 5685 5689 5695 5701 5706 5710 5714 5719 5723 5729 5734 5739 5743 5747 5750 5754 5758 5762 5765 5769 5774 5777 5779 5782 5784 5787 5790 5792 5795 5798 5801 5803 5806 5809 5811 5813 5815 5817 5819 5822 5824 5826 5828 5830
Wind_Speed
62 62 60 59 59 59 59 58 57 56 54 50 49 50 50 51 51 53 54 52 50 46 35 28 29 32 32 31 33 35 36 38 41 41 41 39 38 37 35 33 30 28 26 25 24 22 21 21 21 20 21 21 23 26 29 30 30 29 30 32 32 32 31
63 63 62 59 58 59 60 60 57 55 54 52 53 53 53 53 54 56 56 49 47 45 37 33 31 29 30 32 33 35 36 39 41 40 40 39 37 36 36 34 32 31 29 27 25 23 22 22 21 21 22 23 24 26 28 30 30 29 30 32 34 34 32
63 63 63 60 59 58 59 59 58 56 56 56 56 56 56 56 56 58 56 49 46 44 36 33 32 29 30 32 33 35 37 38 39 38 38 39 37 36 36 35 34 33 31 30 27 25 24 23 23 23 24 25 26 26 28 30 30 30 32 35 36 36 34
63 63 64 61 59 58 57 59 59 58 58 57 55 56 56 56 57 57 56 50 46 42 36 33 32 30 31 33 35 36 37 37 37 37 37 38 38 37 36 35 34 33 33 31 29 28 26 25 24 24 25 26 26 27 28 30 31 31 32 35 37 37 35
64 64 64 62 60 59 59 60 61 60 60 59 56 56 56 55 56 56 55 52 45 39 35 34 32 30 32 34 36 37 37 37 36 37 37 37 38 37 36 35 35 34 34 33 31 30 29 28 27 27 27 26 27 27 28 30 32 31 31 33 36 37 36
64 65 64 62 61 61 61 62 63 62 61 61 59 59 58 57 58 57 56 54 46 38 36 35 32 31 33 35 35 37 38 37 36 36 36 36 36 36 36 36 36 35 35 35 34 34 33 31 29 29 28 27 27 27 28 29 31 31 30 32 35 36 36
62 64 63 62 61 61 62 62 63 63 62 63 62 61 60 58 59 58 57 56 48 38 35 36 32 31 33 35 35 36 38 37 35 35 35 34 34 34 35 36 36 36 35 36 37 37 35 32 30 30 29 28 28 27 28 29 30 30 30 32 34 36 36
57 60 62 62 61 60 61 63 64 64 65 65 64 63 61 58 59 58 57 57 48 37 35 36 33 30 33 36 36 35 37 37 35 35 35 34 33 33 34 35 36 35 35 37 39 38 37 34 32 32 31 30 28 28 28 29 30 31 31 32 34 36 36
53 55 59 62 61 60 61 63 64 65 66 66 64 63 62 61 60 57 57 58 46 36 35 36 33 32 33 37 38 37 37 38 38 37 37 36 35 36 36 36 35 36 36 38 40 40 39 36 34 33 32 31 30 29 29 29 30 31 32 32 33 35 36
52 53 59 63 63 62 62 63 64 65 66 66 65 64 63 62 61 57 58 58 44 35 36 36 34 34 34 37 39 39 39 40 40 40 38 37 37 38 39 38 37 37 36 36 37 39 40 39 37 35 34 32 31 30 30 30 31 32 32 33 33 34 36
51 52 59 64 64 63 63 63 65 66 66 67 67 66 65 63 61 58 58 54 41 35 36 36 36 37 37 37 40 42 43 43 43 41 40 38 38 38 40 40 40 39 37 34 33 35 38 39 38 37 35 33 32 32 31 32 32 33 33 33 33 34 35
49 51 56 62 63 62 63 63 64 66 67 68 69 67 66 64 60 60 59 50 39 36 37 37 39 41 41 41 42 44 46 46 46 44 43 43 42 41 41 42 43 41 39 35 32 32 34 36 37 37 35 34 33 33 33 33 33 33 33 34 34 34 34
48 50 54 61 62 61 62 63 64 66 68 69 70 68 66 65 62 62 58 47 39 37 36 38 42 44 44 44 43 45 46 46 47 47 47 46 45 44 44 43 43 42 40 36 33 31 32 34 36 36 35 34 34 35 35 35 35 34 34 34 34 34 34
46 49 52 60 62 60 61 62 63 66 68 69 70 68 67 66 65 63 55 45 41 37 34 39 45 47 46 45 44 45 46 46 48 49 49 49 49 48 46 45 44 43 41 38 35 32 31 33 34 36 36 35 34 35 36 36 36 34 34 33 34 34 33
44 47 49 57 62 60 59 61 62 64 67 68 69 69 68 67 66 62 53 45 42 39 36 40 45 47 47 46 45 45 46 47 48 49 51 52 51 50 50 49 47 44 41 39 36 33 31 32 34 35 35 34 34 35 36 37 36 34 33 33 33 33 33
42 45 47 54 61 62 59 60 62 63 65 67 69 69 69 68 65 61 53 46 44 41 39 41 44 47 46 45 44 44 45 47 48 49 50 50 51 53 54 52 50 47 44 41 38 34 32 33 35 35 35 35 35 36 37 37 36 35 33 33 32 33 34
40 43 46 51 59 62 61 61 62 62 64 67 68 69 70 68 64 60 53 47 46 45 41 40 42 44 43 42 42 43 44 46 46 46 48 50 51 52 51 48 47 46 45 43 39 36 35 36 35 35 36 35 35 36 36 37 37 35 33 33 33 34 35
40 42 45 48 56 63 63 61 61 62 62 65 68 68 69 67 62 59 53 48 49 49 44 41 41 41 40 39 39 40 42 44 44 45 46 45 44 42 40 41 44 46 45 43 41 40 40 39 36 36 37 36 35 37 37 37 37 35 33 33 33 35 36
41 43 44 46 53 63 64 59 59 61 61 64 68 69 69 66 61 58 54 50 51 49 44 42 42 41 39 38 37 38 40 41 41 39 38 36 34 33 34 36 41 45 46 45 43 43 43 40 37 39 38 35 36 38 38 38 37 35 34 34 34 36 37
43 45 45 46 50 60 64 59 58 61 61 62 67 69 68 65 61 58 55 53 52 48 44 44 44 41 39 38 37 38 38 38 35 32 30 29 28 29 31 33 35 40 45 46 44 44 42 39 38 39 36 33 36 38 39 39 38 36 35 34 35 36 37
46 47 45 45 47 56 64 62 58 61 63 62 65 68 68 64 61 58 55 54 53 48 45 46 45 42 41 40 38 38 37 35 32 29 27 27 27 27 30 32 33 37 45 48 45 42 40 38 39 38 34 33 36 39 40 40 38 37 36 35 35 36 36
45 48 45 44 46 52 62 64 59 60 63 62 64 67 66 63 61 58 56 55 53 49 47 47 47 45 44 43 40 39 38 35 32 30 28 27 27 28 29 30 31 37 45 47 44 40 38 38 39 38 35 34 37 39 40 40 38 37 36 35 35 35 34
39 45 45 44 44 49 58 63 60 59 62 63 64 65 63 62 62 59 57 56 54 51 48 47 47 48 47 45 42 40 38 36 34 33 30 28 26 26 27 28 31 36 44 46 42 39 38 37 38 37 36 36 37 39 39 38 37 36 35 35 34 33 32
36 41 42 41 42 46 55 62 60 58 61 62 63 63 61 61 62 60 58 56 54 52 49 47 48 50 49 46 43 41 39 39 38 36 33 29 25 24 25 28 31 36 42 44 41 38 38 38 38 38 37 37 37 38 38 37 36 35 34 34 34 33 33
38 40 38 38 40 43 51 60 60 58 60 61 62 63 60 60 62 62 58 55 53 52 50 48 49 52 51 48 45 42 42 43 42 39 34 30 26 23 24 28 31 36 40 42 41 40 39 39 39 38 38 37 37 37 37 35 34 33 33 33 33 32 32
36 38 35 35 38 40 47 57 61 59 59 59 61 61 58 57 61 63 59 55 52 51 50 49 51 54 53 49 46 45 45 46 44 40 36 32 27 24 24 27 31 35 39 41 42 41 41 40 40 39 38 38 38 37 34 31 31 33 32 31 31 30 31
33 34 35 36 38 39 45 56 61 60 59 59 60 59 53 51 58 62 60 56 52 50 51 51 53 55 54 50 48 47 48 49 47 43 39 34 30 26 25 26 29 35 40 41 41 41 41 40 39 39 39 39 39 36 32 30 31 32 31 29 28 28 28
34 35 36 38 40 41 45 54 61 61 60 59 59 57 48 44 51 60 61 58 53 51 51 52 54 57 55 51 49 50 51 51 48 45 41 37 33 30 27 28 30 35 39 41 41 42 41 40 39 39 39 40 39 35 32 31 31 31 30 28 27 27 27
37 37 37 38 40 41 45 54 60 60 58 57 58 56 47 40 45 55 60 59 55 52 51 52 55 57 57 54 51 51 52 53 51 48 44 41 37 33 29 29 32 36 40 41 41 42 41 40 40 40 39 39 38 35 34 33 32 32 31 29 29 29 29
37 38 39 39 39 42 46 53 59 59 57 56 57 57 49 40 41 51 58 59 56 53 52 52 55 58 59 56 54 53 54 55 53 50 47 43 40 37 32 30 32 37 41 43 43 43 42 41 40 39 38 38 37 35 34 34 33 34 33 32 31 31 31
36 38 41 40 40 42 46 51 57 59 57 56 56 55 48 41 40 47 55 58 57 55 54 53 55 58 60 58 56 55 56 56 55 52 49 45 42 40 35 32 34 39 43 45 45 45 43 41 39 37 36 36 35 35 36 35 35 36 36 35 34 34 33
34 37 40 41 41 43 46 51 57 58 56 56 56 52 45 41 42 47 54 58 57 56 56 55 55 58 61 61 59 57 56 57 56 54 51 47 44 42 39 36 36 42 46 46 46 46 44 41 38 36 34 33 34 35 36 37 37 38 39 39 38 37 36
33 36 40 41 41 44 47 51 56 58 56 56 56 50 43 42 44 47 53 57 57 57 56 56 56 59 61 63 62 60 57 57 57 55 53 50 46 44 42 39 39 43 48 49 47 47 46 43 41 38 36 34 34 35 36 37 37 39 41 43 43 41 39
32 35 39 42 41 43 48 51 54 58 58 58 56 50 45 46 47 48 52 57 58 57 58 57 57 58 61 63 64 62 59 58 57 56 54 52 49 46 44 42 41 44 49 51 50 49 48 46 44 42 39 37 36 37 38 37 37 39 41 44 44 43 43
31 33 38 42 42 43 46 50 53 56 58 61 59 54 50 51 52 50 51 56 59 59 58 58 58 58 60 62 64 64 62 60 58 58 57 54 51 49 47 45 42 43 49 53 52 51 50 49 47 45 44 40 38 39 39 39 39 39 39 39 40 41 43
30 32 35 41 44 43 43 47 52 56 58 62 63 60 53 51 53 54 53 54 58 60 59 58 59 59 60 61 62 63 64 62 60 60 60 57 53 51 49 47 44 43 47 52 54 53 52 51 49 47 45 41 38 38 38 36 37 37 36 37 38 38 40
27 31 33 38 44 45 43 44 48 55 61 62 63 62 56 50 50 55 57 56 57 59 61 61 59 59 60 60 60 61 63 63 62 62 62 60 57 54 51 48 45 44 46 50 53 54 53 51 49 47 45 41 39 40 38 34 35 37 37 37 39 38 37
Wind_Direction
218 218 218 217 215 214 214 215 217 219 219 220 222 222 224 228 228 230 229 225 228 232 225 214 209 212 217 208 200 205 207 209 213 216 219 219 218 216 213 213 217 217 214 213 214 218 222 222 215 208 205 201 200 199 198 198 197 194 193 194 195 197 197
217 218 218 218 217 215 215 216 217 218 220 220 222 221 221 225 226 229 231 226 226 229 222 217 213 205 211 210 203 204 205 206 211 213 217 219 219 219 217 215 218 218 216 215 214 216 221 224 218 209 205 204 203 202 200 200 199 195 193 194 196 198 198
215 217 218 217 216 215 215 216 216 217 220 220 221 221 219 221 224 227 231 226 223 225 218 214 214 204 205 209 204 204 204 204 209 211 215 218 219 221 221 218 219 219 217 215 213 213 217 220 219 212 207 205 205 204 203 201 199 198 196 195 196 199 198
215 216 218 216 215 215 213 215 216 216 219 221 222 223 222 222 225 227 230 227 221 221 218 215 214 207 204 206 204 204 205 204 207 210 213 217 219 222 223 221 220 220 218 215 212 212 213 217 219 215 210 208 207 207 206 203 201 200 200 197 197 198 199
217 215 216 215 214 215 212 213 215 214 217 219 220 223 223 224 227 229 231 230 221 217 218 217 214 207 205 207 204 201 204 204 205 208 212 215 218 221 223 223 221 218 217 215 212 210 211 214 216 215 212 210 209 208 207 205 203 202 201 201 200 200 200
218 215 214 214 214 215 213 212 214 214 215 218 219 221 221 221 224 227 230 230 221 214 216 217 213 207 204 208 204 198 201 204 204 207 210 213 216 218 220 223 223 218 215 214 213 211 212 214 216 216 213 211 210 208 206 205 203 202 202 203 202 202 202
219 215 213 214 214 216 215 213 214 214 214 217 219 220 221 221 223 225 228 228 219 209 213 216 214 207 201 205 205 198 198 202 202 205 209 212 215 216 218 222 225 222 216 214 213 212 213 214 216 218 215 213 211 208 205 203 201 202 203 204 204 204 203
218 216 214 215 215 215 215 213 213 213 214 217 218 220 221 221 223 225 228 228 217 204 209 214 211 206 199 201 205 200 197 200 201 203 208 211 213 216 217 219 223 223 218 214 213 213 213 213 216 218 217 213 211 208 206 202 201 202 204 205 205 205 205
214 214 215 217 215 214 214 213 212 212 214 216 218 220 221 221 222 223 227 228 218 203 206 211 207 204 198 197 201 201 198 199 202 205 208 210 212 214 214 214 218 222 221 216 213 214 213 212 216 219 217 214 210 208 206 202 202 204 204 206 206 205 206
212 211 214 215 214 213 213 212 212 212 213 214 216 219 221 222 222 222 226 228 219 203 205 210 206 204 199 196 197 198 198 198 201 206 207 207 208 210 212 212 214 219 222 220 216 216 214 212 215 219 218 215 210 207 205 203 204 206 205 206 207 206 207
212 210 212 214 213 212 212 212 211 212 213 213 214 217 220 222 222 222 226 228 219 205 205 209 208 206 203 198 194 195 196 197 198 202 204 203 204 206 209 212 214 218 221 222 219 219 218 216 216 218 219 215 211 208 206 205 207 208 207 207 207 208 209
214 210 210 213 214 211 211 212 211 211 212 213 214 216 218 221 221 222 225 225 217 207 205 208 209 207 205 201 196 193 195 197 197 199 201 201 200 202 206 209 213 215 216 217 216 216 218 219 219 220 219 217 213 209 207 208 209 209 209 209 209 210 210
214 211 208 210 213 212 211 211 211 211 212 212 214 215 217 219 221 223 224 220 215 210 206 206 210 209 206 203 197 193 194 197 199 199 200 200 199 200 202 205 209 210 209 209 209 209 211 216 219 221 221 219 216 213 210 210 210 210 210 210 211 211 212
214 211 208 207 210 211 211 210 210 211 212 212 213 214 216 218 220 222 221 216 213 211 204 205 210 210 207 203 199 195 195 198 200 200 201 201 200 200 201 203 206 207 207 206 204 204 207 213 218 221 223 222 219 217 215 214 213 212 212 212 213 213 212
214 210 209 207 208 210 211 210 210 211 212 212 213 214 215 217 220 221 218 212 210 207 202 203 207 210 209 204 200 198 197 199 201 202 203 203 203 203 203 204 205 206 207 205 201 200 204 211 216 220 223 223 221 218 218 218 217 215 214 214 214 213 213
215 210 209 207 207 209 210 210 210 210 211 212 212 213 215 216 218 219 215 209 206 204 201 203 207 211 211 207 202 200 198 200 202 204 206 206 206 206 207 207 206 206 207 206 201 197 201 208 213 218 222 223 222 219 219 220 219 217 216 216 215 214 214
217 212 210 207 206 208 209 209 209 209 210 211 212 212 214 216 217 218 214 206 203 202 201 204 207 211 212 209 204 200 198 201 204 205 208 210 210 212 213 212 211 211 210 208 202 198 202 208 213 220 224 224 223 221 219 220 221 219 218 218 216 215 214
219 215 212 208 206 207 208 208 208 209 210 211 212 212 214 215 216 216 212 204 203 203 202 204 207 209 210 207 202 197 196 200 204 206 210 214 215 216 215 213 214 215 215 211 203 200 205 207 210 219 223 222 222 220 218 220 221 219 218 218 217 216 215
219 216 214 210 208 207 206 206 208 209 209 211 211 212 213 214 215 215 210 204 204 204 202 203 206 206 206 205 200 195 195 198 201 204 209 211 210 209 209 208 211 214 216 212 204 202 205 204 207 216 220 220 220 219 218 220 221 219 218 218 217 217 216
217 216 215 211 207 205 205 206 207 208 209 211 212 212 213 214 214 213 209 205 204 203 199 200 203 203 203 202 197 195 196 197 197 200 203 204 205 207 209 211 212 212 214 213 207 203 203 203 207 215 218 220 220 218 217 220 221 219 217 217 217 218 217
215 217 216 209 205 205 205 205 205 207 208 210 212 212 212 213 213 211 208 205 204 202 197 197 201 201 199 198 196 197 198 197 195 198 203 207 210 213 214 215 213 208 208 209 205 199 199 204 210 215 217 220 220 217 217 220 221 220 218 217 218 219 218
212 217 217 209 205 206 206 204 204 206 208 210 212 212 212 212 212 210 208 205 204 201 196 196 199 199 197 196 198 200 199 196 195 199 205 209 213 214 214 215 213 208 206 205 199 195 198 205 211 214 217 219 218 216 218 221 222 221 219 218 219 219 218
207 215 216 212 207 206 205 204 204 206 208 210 212 213 213 212 211 210 208 206 204 201 197 197 198 199 198 198 201 203 199 195 194 197 201 206 210 212 214 212 209 206 205 202 197 195 199 205 209 212 214 217 216 216 219 221 222 221 220 219 219 218 217
205 213 215 212 208 205 204 204 204 206 208 211 212 213 213 212 210 209 208 206 204 201 198 196 197 198 198 199 202 203 199 195 194 195 199 203 205 209 213 209 203 203 203 200 197 198 201 205 209 210 211 214 214 215 218 220 221 221 220 219 218 217 216
207 212 212 209 206 205 204 203 203 206 208 211 213 212 212 211 210 209 208 206 204 202 199 196 195 197 197 199 201 201 197 195 194 195 199 201 199 203 209 206 200 199 199 197 196 200 203 206 208 208 209 211 213 215 218 219 220 220 220 219 218 217 216
205 208 207 206 205 204 203 202 203 206 209 211 212 211 212 214 212 209 208 206 204 203 200 196 195 195 197 199 199 197 195 194 194 195 198 199 195 197 203 203 198 195 194 195 198 202 207 209 209 209 209 210 214 216 217 219 221 221 220 219 219 218 215
200 201 201 203 203 203 202 202 203 206 209 211 210 209 212 218 215 211 209 207 204 203 202 198 195 196 198 199 197 195 193 194 195 196 197 196 194 195 200 201 198 194 194 198 202 206 209 211 211 212 211 212 215 217 217 219 222 221 220 219 218 216 214
197 198 200 201 201 201 200 200 203 206 209 210 209 206 210 219 218 213 211 208 205 204 203 200 198 198 199 199 196 192 191 193 196 197 197 196 194 194 197 201 201 197 195 199 204 208 211 213 214 215 215 214 216 217 217 219 221 220 219 217 215 213 211
201 199 201 202 201 200 199 200 203 207 209 210 207 205 209 217 219 215 213 210 207 205 204 203 200 199 200 199 195 191 190 194 197 199 199 199 197 196 196 198 201 199 196 199 206 209 211 213 216 218 218 216 216 217 219 219 217 216 216 215 213 211 209
207 203 203 204 203 199 198 200 203 206 209 209 207 206 210 217 218 215 214 211 208 206 205 205 203 201 201 199 196 192 192 195 199 201 201 201 200 198 196 197 200 200 198 201 207 210 212 215 218 220 220 217 215 214 215 215 213 212 213 214 213 212 211
211 206 204 206 204 199 198 201 202 205 208 208 206 206 211 217 217 215 214 212 209 207 206 206 205 203 202 200 197 195 194 196 200 203 203 203 202 200 198 198 200 199 198 202 208 211 213 215 216 217 217 215 212 210 210 211 211 211 212 213 213 214 213
213 208 205 206 204 199 199 201 202 204 206 206 205 205 211 216 215 214 213 212 210 208 207 206 207 205 203 201 200 198 197 198 202 205 205 205 205 202 199 199 200 198 198 202 208 212 214 214 214 214 215 213 211 210 210 211 212 212 213 213 213 214 214
213 210 207 207 205 201 200 201 203 203 204 204 203 204 210 215 215 213 212 210 210 209 208 207 208 208 206 204 202 201 199 199 203 207 208 207 207 205 201 200 201 199 198 202 208 212 215 216 215 215 216 215 214 214 214 215 215 214 216 217 214 212 213
213 213 209 207 206 203 202 203 204 204 204 204 203 205 212 216 214 212 211 210 209 209 208 208 209 210 209 207 205 203 202 202 204 208 209 209 209 209 206 203 203 202 201 203 208 213 216 218 218 218 218 218 218 217 214 215 217 217 219 222 221 215 213
211 215 211 208 206 205 205 206 205 204 205 206 206 207 211 212 209 208 210 210 210 210 209 209 210 211 211 210 208 206 205 205 206 209 212 211 209 211 211 208 205 205 205 205 208 213 217 220 221 221 220 219 221 223 219 216 217 218 220 225 228 225 219
209 217 215 210 207 206 207 209 207 205 205 208 211 212 209 205 203 206 210 211 210 211 210 210 212 213 213 213 211 209 208 208 208 210 214 214 211 212 214 213 210 208 207 207 209 212 217 220 222 223 223 219 222 228 226 218 215 218 220 223 227 231 228
203 215 219 216 212 208 207 209 210 207 206 210 217 218 214 205 202 206 210 212 211 211 210 211 213 214 215 215 213 211 210 210 210 211 214 215 214 214 216 216 214 211 209 209 210 212 215 219 221 224 226 224 223 227 228 220 215 218 222 224 226 230 232